Time,TemperatureF,DewpointF,PressureIn,WindDirection,WindDirectionDegrees,WindSpeedMPH,WindSpeedGustMPH,Humidity,HourlyPrecipIn,Conditions,Clouds,dailyrainin,SoftwareType,DateUTC
2013-02-12 00:01:00,65.3,20.7,25.73,North,0,0.0,0.0,18,0.00,,---,0.00,VWS V13.01,2013-02-12 06:01:00,
2013-02-12 00:06:00,65.7,21.0,25.73,North,0,0.0,0.0,18,0.00,,---,0.00,VWS V13.01,2013-02-12 06:06:00,
2013-02-12 00:11:00,65.5,20.9,25.73,North,0,0.0,0.0,18,0.00,,---,0.00,VWS V13.01,2013-02-12 06:11:00,
2013-02-12 00:16:00,65.5,20.9,25.73,North,0,0.0,0.0,18,0.00,,---,0.00,VWS V13.01,2013-02-12 06:16:00,
2013-02-12 00:21:00,65.5,20.9,25.73,North,0,0.0,0.0,18,0.00,,---,0.00,VWS V13.01,2013-02-12 06:21:00,
2013-02-12 00:26:00,65.5,20.9,25.73,North,0,0.0,0.0,18,0.00,,---,0.00,VWS V13.01,2013-02-12 06:26:00,
2013-02-12 00:31:00,65.5,20.9,25.73,North,0,0.0,0.0,18,0.00,,---,0.00,VWS V13.01,2013-02-12 06:31:00,
2013-02-12 00:36:00,65.5,20.9,25.73,North,0,0.0,0.0,18,0.00,,---,0.00,VWS V13.01,2013-02-12 06:36:00,
2013-02-12 00:41:00,65.7,21.0,25.73,North,0,0.0,0.0,18,0.00,,---,0.00,VWS V13.01,2013-02-12 06:41:00,
2013-02-12 00:46:00,65.7,21.0,25.73,North,0,0.0,0.0,18,0.00,,---,0.00,VWS V13.01,2013-02-12 06:46:00,
2013-02-12 00:51:00,65.7,21.0,25.73,North,0,0.0,0.0,18,0.00,,---,0.00,VWS V13.01,2013-02-12 06:51:00,
2013-02-12 00:56:00,65.7,21.0,25.73,North,0,0.0,0.0,18,0.00,,---,0.00,VWS V13.01,2013-02-12 06:56:00,
2013-02-12 01:01:00,65.7,21.0,25.73,North,0,0.0,0.0,18,0.00,,---,0.00,VWS V13.01,2013-02-12 07:01:00,
2013-02-12 01:06:00,65.8,21.2,25.70,North,0,0.0,0.0,18,0.00,,---,0.00,VWS V13.01,2013-02-12 07:06:00,
2013-02-12 01:11:00,65.7,21.0,25.70,North,0,0.0,0.0,18,0.00,,---,0.00,VWS V13.01,2013-02-12 07:11:00,
2013-02-12 01:16:00,65.7,21.0,25.70,North,0,0.0,0.0,18,0.00,,---,0.00,VWS V13.01,2013-02-12 07:16:00,
2013-02-12 01:21:00,65.7,21.0,25.70,North,0,0.0,0.0,18,0.00,,---,0.00,VWS V13.01,2013-02-12 07:21:00,
2013-02-12 01:26:00,65.8,21.2,25.70,North,0,0.0,0.0,18,0.00,,---,0.00,VWS V13.01,2013-02-12 07:26:00,
2013-02-12 01:31:00,66.0,21.3,25.70,North,0,0.0,0.0,18,0.00,,---,0.00,VWS V13.01,2013-02-12 07:31:00,
2013-02-12 01:36:00,66.0,21.3,25.70,North,0,0.0,0.0,18,0.00,,---,0.00,VWS V13.01,2013-02-12 07:36:00,
2013-02-12 01:41:00,66.0,21.3,25.70,North,0,0.0,0.0,18,0.00,,---,0.00,VWS V13.01,2013-02-12 07:41:00,
2013-02-12 01:46:00,66.2,20.1,25.70,North,0,0.0,0.0,17,0.00,,---,0.00,VWS V13.01,2013-02-12 07:46:00,
2013-02-12 01:51:00,66.2,20.1,25.70,North,0,0.0,0.0,17,0.00,,---,0.00,VWS V13.01,2013-02-12 07:51:00,
2013-02-12 01:56:00,66.4,20.3,25.70,North,0,0.0,0.0,17,0.00,,---,0.00,VWS V13.01,2013-02-12 07:56:00,
2013-02-12 02:01:00,66.4,20.3,25.70,North,0,0.0,0.0,17,0.00,,---,0.00,VWS V13.01,2013-02-12 08:01:00,
2013-02-12 02:06:00,66.2,20.1,25.70,North,0,0.0,0.0,17,0.00,,---,0.00,VWS V13.01,2013-02-12 08:06:00,
2013-02-12 02:11:00,66.2,20.1,25.70,North,0,0.0,0.0,17,0.00,,---,0.00,VWS V13.01,2013-02-12 08:11:00,
2013-02-12 02:16:00,66.2,20.1,25.70,North,0,0.0,0.0,17,0.00,,---,0.00,VWS V13.01,2013-02-12 08:16:00,
2013-02-12 02:21:00,65.8,21.2,25.70,North,0,0.0,0.0,18,0.00,,---,0.00,VWS V13.01,2013-02-12 08:21:00,
2013-02-12 02:26:00,65.7,21.0,25.70,North,0,0.0,0.0,18,0.00,,---,0.00,VWS V13.01,2013-02-12 08:26:00,
2013-02-12 02:31:00,65.5,20.9,25.70,North,0,0.0,0.0,18,0.00,,---,0.00,VWS V13.01,2013-02-12 08:31:00,
2013-02-12 02:36:00,65.3,20.7,25.70,North,0,0.0,0.0,18,0.00,,---,0.00,VWS V13.01,2013-02-12 08:36:00,
2013-02-12 02:41:00,65.1,20.6,25.70,North,0,0.0,0.0,18,0.00,,---,0.00,VWS V13.01,2013-02-12 08:41:00,
2013-02-12 02:46:00,64.4,20.0,25.70,North,0,0.0,0.0,18,0.00,,---,0.00,VWS V13.01,2013-02-12 08:46:00,
2013-02-12 02:51:00,64.2,19.9,25.70,North,0,0.0,0.0,18,0.00,,---,0.00,VWS V13.01,2013-02-12 08:51:00,
2013-02-12 02:56:00,64.4,20.0,25.70,North,0,0.0,0.0,18,0.00,,---,0.00,VWS V13.01,2013-02-12 08:56:00,
2013-02-12 03:01:00,64.4,20.0,25.70,North,0,0.0,0.0,18,0.00,,---,0.00,VWS V13.01,2013-02-12 09:01:00,
2013-02-12 03:06:00,64.4,20.0,25.67,North,0,0.0,0.0,18,0.00,,---,0.00,VWS V13.01,2013-02-12 09:06:00,
2013-02-12 03:11:00,64.6,20.1,25.67,North,0,0.0,0.0,18,0.00,,---,0.00,VWS V13.01,2013-02-12 09:11:00,
2013-02-12 03:16:00,64.4,20.0,25.67,North,0,0.0,0.0,18,0.00,,---,0.00,VWS V13.01,2013-02-12 09:16:00,
2013-02-12 03:21:00,63.7,19.4,25.70,North,0,0.0,0.0,18,0.00,,---,0.00,VWS V13.01,2013-02-12 09:21:00,
2013-02-12 03:26:00,62.6,18.5,25.70,North,0,0.0,0.0,18,0.00,,---,0.00,VWS V13.01,2013-02-12 09:26:00,
2013-02-12 03:31:00,61.3,18.8,25.70,North,0,0.0,0.0,19,0.00,,---,0.00,VWS V13.01,2013-02-12 09:31:00,
2013-02-12 03:36:00,61.0,18.5,25.67,North,0,0.0,0.0,19,0.00,,---,0.00,VWS V13.01,2013-02-12 09:36:00,
2013-02-12 03:41:00,61.5,18.9,25.67,North,0,0.0,0.0,19,0.00,,---,0.00,VWS V13.01,2013-02-12 09:41:00,
2013-02-12 03:46:00,62.1,19.3,25.67,North,0,0.0,0.0,19,0.00,,---,0.00,VWS V13.01,2013-02-12 09:46:00,
2013-02-12 03:51:00,62.4,19.6,25.70,North,0,0.0,0.0,19,0.00,,---,0.00,VWS V13.01,2013-02-12 09:51:00,
2013-02-12 03:56:00,62.8,18.7,25.70,North,0,0.0,0.0,18,0.00,,---,0.00,VWS V13.01,2013-02-12 09:56:00,
2013-02-12 04:01:00,63.1,19.0,25.70,North,0,0.0,0.0,18,0.00,,---,0.00,VWS V13.01,2013-02-12 10:01:00,
2013-02-12 04:06:00,63.3,19.1,25.70,North,0,0.0,0.0,18,0.00,,---,0.00,VWS V13.01,2013-02-12 10:06:00,
2013-02-12 04:11:00,63.9,19.6,25.70,North,0,0.0,0.0,18,0.00,,---,0.00,VWS V13.01,2013-02-12 10:11:00,
2013-02-12 04:16:00,64.2,19.9,25.70,North,0,0.0,0.0,18,0.00,,---,0.00,VWS V13.01,2013-02-12 10:16:00,
2013-02-12 04:21:00,64.8,20.3,25.67,North,0,0.0,0.0,18,0.00,,---,0.00,VWS V13.01,2013-02-12 10:21:00,
2013-02-12 04:26:00,64.6,20.1,25.67,North,0,0.0,0.0,18,0.00,,---,0.00,VWS V13.01,2013-02-12 10:26:00,
2013-02-12 04:31:00,64.6,20.1,25.67,North,0,0.0,0.0,18,0.00,,---,0.00,VWS V13.01,2013-02-12 10:31:00,
2013-02-12 04:36:00,64.6,20.1,25.67,North,0,0.0,0.0,18,0.00,,---,0.00,VWS V13.01,2013-02-12 10:36:00,
2013-02-12 04:41:00,64.8,20.3,25.67,North,0,0.0,0.0,18,0.00,,---,0.00,VWS V13.01,2013-02-12 10:41:00,
2013-02-12 04:46:00,64.9,20.4,25.67,North,0,0.0,0.0,18,0.00,,---,0.00,VWS V13.01,2013-02-12 10:46:00,
2013-02-12 04:51:00,64.6,20.1,25.70,North,0,0.0,0.0,18,0.00,,---,0.00,VWS V13.01,2013-02-12 10:51:00,
2013-02-12 04:56:00,64.2,19.9,25.70,North,0,0.0,0.0,18,0.00,,---,0.00,VWS V13.01,2013-02-12 10:56:00,
2013-02-12 05:01:00,63.7,19.4,25.70,North,0,0.0,0.0,18,0.00,,---,0.00,VWS V13.01,2013-02-12 11:01:00,
2013-02-12 05:06:00,63.7,19.4,25.70,North,0,0.0,0.0,18,0.00,,---,0.00,VWS V13.01,2013-02-12 11:06:00,
2013-02-12 05:11:00,63.7,19.4,25.70,North,0,0.0,0.0,18,0.00,,---,0.00,VWS V13.01,2013-02-12 11:11:00,
2013-02-12 05:16:00,63.5,19.3,25.70,North,0,0.0,0.0,18,0.00,,---,0.00,VWS V13.01,2013-02-12 11:16:00,
2013-02-12 05:21:00,63.5,19.3,25.70,North,0,0.0,0.0,18,0.00,,---,0.00,VWS V13.01,2013-02-12 11:21:00,
2013-02-12 05:26:00,63.0,18.8,25.70,North,0,0.0,0.0,18,0.00,,---,0.00,VWS V13.01,2013-02-12 11:26:00,
2013-02-12 05:31:00,62.4,19.6,25.70,North,0,0.0,0.0,19,0.00,,---,0.00,VWS V13.01,2013-02-12 11:31:00,
2013-02-12 05:36:00,61.9,19.2,25.70,North,0,0.0,0.0,19,0.00,,---,0.00,VWS V13.01,2013-02-12 11:36:00,
2013-02-12 05:41:00,61.7,19.0,25.70,North,0,0.0,0.0,19,0.00,,---,0.00,VWS V13.01,2013-02-12 11:41:00,
2013-02-12 05:46:00,61.7,19.0,25.70,North,0,0.0,0.0,19,0.00,,---,0.00,VWS V13.01,2013-02-12 11:46:00,
2013-02-12 05:51:00,61.3,18.8,25.70,North,0,0.0,0.0,19,0.00,,---,0.00,VWS V13.01,2013-02-12 11:51:00,
2013-02-12 05:56:00,61.0,18.5,25.70,North,0,0.0,0.0,19,0.00,,---,0.00,VWS V13.01,2013-02-12 11:56:00,
2013-02-12 06:01:00,61.0,18.5,25.70,North,0,0.0,0.0,19,0.00,,---,0.00,VWS V13.01,2013-02-12 12:01:00,
2013-02-12 06:06:00,61.9,19.2,25.70,North,0,0.0,0.0,19,0.00,,---,0.00,VWS V13.01,2013-02-12 12:06:00,
2013-02-12 06:11:00,63.5,19.3,25.70,North,0,0.0,0.0,18,0.00,,---,0.00,VWS V13.01,2013-02-12 12:11:00,
2013-02-12 06:16:00,64.8,20.3,25.70,North,0,0.0,0.0,18,0.00,,---,0.00,VWS V13.01,2013-02-12 12:16:00,
2013-02-12 06:21:00,65.5,20.9,25.70,North,0,0.0,0.0,18,0.00,,---,0.00,VWS V13.01,2013-02-12 12:21:00,
2013-02-12 06:26:00,66.0,21.3,25.70,North,0,0.0,0.0,18,0.00,,---,0.00,VWS V13.01,2013-02-12 12:26:00,
2013-02-12 06:31:00,66.2,20.1,25.70,North,0,0.0,0.0,17,0.00,,---,0.00,VWS V13.01,2013-02-12 12:31:00,
2013-02-12 06:36:00,66.0,21.3,25.70,North,0,0.0,0.0,18,0.00,,---,0.00,VWS V13.01,2013-02-12 12:36:00,
2013-02-12 06:41:00,65.7,21.0,25.70,North,0,0.0,0.0,18,0.00,,---,0.00,VWS V13.01,2013-02-12 12:41:00,
2013-02-12 06:46:00,65.1,20.6,25.70,North,0,0.0,0.0,18,0.00,,---,0.00,VWS V13.01,2013-02-12 12:46:00,
2013-02-12 06:51:00,64.4,20.0,25.70,North,0,0.0,0.0,18,0.00,,---,0.00,VWS V13.01,2013-02-12 12:51:00,
2013-02-12 06:56:00,63.7,19.4,25.70,North,0,0.0,0.0,18,0.00,,---,0.00,VWS V13.01,2013-02-12 12:56:00,
2013-02-12 07:01:00,63.0,18.8,25.70,North,0,0.0,0.0,18,0.00,,---,0.00,VWS V13.01,2013-02-12 13:01:00,
2013-02-12 07:06:00,62.4,19.6,25.70,North,0,0.0,0.0,19,0.00,,---,0.00,VWS V13.01,2013-02-12 13:06:00,
2013-02-12 07:11:00,62.2,19.5,25.70,North,0,0.0,0.0,19,0.00,,---,0.00,VWS V13.01,2013-02-12 13:11:00,
2013-02-12 07:16:00,61.9,19.2,25.70,North,0,0.0,0.0,19,0.00,,---,0.00,VWS V13.01,2013-02-12 13:16:00,
2013-02-12 07:21:00,61.5,18.9,25.73,North,0,0.0,0.0,19,0.00,,---,0.00,VWS V13.01,2013-02-12 13:21:00,
2013-02-12 07:26:00,61.3,18.8,25.73,North,0,0.0,0.0,19,0.00,,---,0.00,VWS V13.01,2013-02-12 13:26:00,
2013-02-12 07:31:00,62.4,19.6,25.73,North,0,0.0,0.0,19,0.00,,---,0.00,VWS V13.01,2013-02-12 13:31:00,
2013-02-12 07:36:00,64.2,19.9,25.73,North,0,0.0,0.0,18,0.00,,---,0.00,VWS V13.01,2013-02-12 13:36:00,
2013-02-12 07:41:00,66.0,21.3,25.73,North,0,0.0,0.0,18,0.00,,---,0.00,VWS V13.01,2013-02-12 13:41:00,
2013-02-12 07:46:00,67.3,21.0,25.73,North,0,0.0,0.0,17,0.00,,---,0.00,VWS V13.01,2013-02-12 13:46:00,
2013-02-12 07:51:00,68.4,21.9,25.73,North,0,0.0,0.0,17,0.00,,---,0.00,VWS V13.01,2013-02-12 13:51:00,
2013-02-12 07:56:00,69.3,22.6,25.73,North,0,0.0,0.0,17,0.00,,---,0.00,VWS V13.01,2013-02-12 13:56:00,
2013-02-12 08:01:00,69.8,23.1,25.73,North,0,0.0,0.0,17,0.00,,---,0.00,VWS V13.01,2013-02-12 14:01:00,
2013-02-12 08:06:00,70.2,23.4,25.76,North,0,0.0,0.0,17,0.00,,---,0.00,VWS V13.01,2013-02-12 14:06:00,
2013-02-12 08:11:00,70.7,23.8,25.76,North,0,0.0,0.0,17,0.00,,---,0.00,VWS V13.01,2013-02-12 14:11:00,
2013-02-12 08:16:00,71.4,24.4,25.76,North,0,0.0,0.0,17,0.00,,---,0.00,VWS V13.01,2013-02-12 14:16:00,
2013-02-12 08:21:00,72.1,23.5,25.76,North,0,0.0,0.0,16,0.00,,---,0.00,VWS V13.01,2013-02-12 14:21:00,
2013-02-12 08:26:00,72.9,24.1,25.76,North,0,0.0,0.0,16,0.00,,---,0.00,VWS V13.01,2013-02-12 14:26:00,
2013-02-12 08:31:00,73.4,24.5,25.76,North,0,0.0,0.0,16,0.00,,---,0.00,VWS V13.01,2013-02-12 14:31:00,
2013-02-12 08:36:00,73.6,24.7,25.79,North,0,0.0,0.0,16,0.00,,---,0.00,VWS V13.01,2013-02-12 14:36:00,
2013-02-12 08:41:00,73.9,25.0,25.79,North,0,0.0,0.0,16,0.00,,---,0.00,VWS V13.01,2013-02-12 14:41:00,
2013-02-12 08:46:00,74.3,25.2,25.79,North,0,0.0,0.0,16,0.00,,---,0.00,VWS V13.01,2013-02-12 14:46:00,
2013-02-12 08:51:00,74.5,25.4,25.79,North,0,0.0,0.0,16,0.00,,---,0.00,VWS V13.01,2013-02-12 14:51:00,
2013-02-12 08:56:00,74.7,25.5,25.79,North,0,0.0,0.0,16,0.00,,---,0.00,VWS V13.01,2013-02-12 14:56:00,
2013-02-12 09:01:00,75.2,24.4,25.79,North,0,0.0,0.0,15,0.00,,---,0.00,VWS V13.01,2013-02-12 15:01:00,
2013-02-12 09:06:00,75.6,24.7,25.79,North,0,0.0,0.0,15,0.00,,---,0.00,VWS V13.01,2013-02-12 15:06:00,
2013-02-12 09:11:00,75.6,24.7,25.79,North,0,0.0,0.0,15,0.00,,---,0.00,VWS V13.01,2013-02-12 15:11:00,
2013-02-12 09:16:00,75.7,24.9,25.79,North,0,0.0,0.0,15,0.00,,---,0.00,VWS V13.01,2013-02-12 15:16:00,
2013-02-12 09:21:00,75.7,24.9,25.79,North,0,0.0,0.0,15,0.00,,---,0.00,VWS V13.01,2013-02-12 15:21:00,
2013-02-12 09:26:00,76.1,25.1,25.79,North,0,0.0,0.0,15,0.00,,---,0.00,VWS V13.01,2013-02-12 15:26:00,
2013-02-12 09:31:00,76.3,25.3,25.79,North,0,0.0,0.0,15,0.00,,---,0.00,VWS V13.01,2013-02-12 15:31:00,
2013-02-12 09:36:00,76.5,25.4,25.82,North,0,0.0,0.0,15,0.00,,---,0.00,VWS V13.01,2013-02-12 15:36:00,
2013-02-12 09:41:00,76.6,25.6,25.82,North,0,0.0,0.0,15,0.00,,---,0.00,VWS V13.01,2013-02-12 15:41:00,
2013-02-12 09:46:00,76.6,25.6,25.82,North,0,0.0,0.0,15,0.00,,---,0.00,VWS V13.01,2013-02-12 15:46:00,
2013-02-12 09:51:00,76.5,25.4,25.82,North,0,0.0,0.0,15,0.00,,---,0.00,VWS V13.01,2013-02-12 15:51:00,
2013-02-12 09:56:00,75.9,25.0,25.82,North,0,0.0,0.0,15,0.00,,---,0.00,VWS V13.01,2013-02-12 15:56:00,
2013-02-12 10:01:00,76.1,25.1,25.82,North,0,0.0,0.0,15,0.00,,---,0.00,VWS V13.01,2013-02-12 16:01:00,
2013-02-12 10:06:00,77.0,25.9,25.85,North,0,0.0,0.0,15,0.00,,---,0.00,VWS V13.01,2013-02-12 16:06:00,
2013-02-12 10:11:00,77.2,26.0,25.85,North,0,0.0,0.0,15,0.00,,---,0.00,VWS V13.01,2013-02-12 16:11:00,
2013-02-12 10:16:00,77.4,26.1,25.85,North,0,0.0,0.0,15,0.00,,---,0.00,VWS V13.01,2013-02-12 16:16:00,
2013-02-12 10:21:00,76.6,25.6,25.82,North,0,0.0,0.0,15,0.00,,---,0.00,VWS V13.01,2013-02-12 16:21:00,
2013-02-12 10:26:00,76.1,25.1,25.82,North,0,0.0,0.0,15,0.00,,---,0.00,VWS V13.01,2013-02-12 16:26:00,
2013-02-12 10:31:00,75.7,24.9,25.82,North,0,0.0,0.0,15,0.00,,---,0.00,VWS V13.01,2013-02-12 16:31:00,
2013-02-12 10:36:00,76.6,25.6,25.82,North,0,0.0,0.0,15,0.00,,---,0.00,VWS V13.01,2013-02-12 16:36:00,
2013-02-12 10:41:00,76.8,25.7,25.82,North,0,0.0,0.0,15,0.00,,---,0.00,VWS V13.01,2013-02-12 16:41:00,
2013-02-12 10:46:00,75.9,25.0,25.82,North,0,0.0,0.0,15,0.00,,---,0.00,VWS V13.01,2013-02-12 16:46:00,
2013-02-12 10:51:00,76.3,25.3,25.82,North,0,0.0,0.0,15,0.00,,---,0.00,VWS V13.01,2013-02-12 16:51:00,
2013-02-12 10:56:00,76.3,25.3,25.82,North,0,0.0,0.0,15,0.00,,---,0.00,VWS V13.01,2013-02-12 16:56:00,
2013-02-12 11:01:00,76.6,25.6,25.82,North,0,0.0,0.0,15,0.00,,---,0.00,VWS V13.01,2013-02-12 17:01:00,
2013-02-12 11:06:00,76.1,25.1,25.82,North,0,0.0,0.0,15,0.00,,---,0.00,VWS V13.01,2013-02-12 17:06:00,
2013-02-12 11:11:00,76.5,25.4,25.82,North,0,0.0,0.0,15,0.00,,---,0.00,VWS V13.01,2013-02-12 17:11:00,
2013-02-12 11:16:00,76.3,25.3,25.82,North,0,0.0,0.0,15,0.00,,---,0.00,VWS V13.01,2013-02-12 17:16:00,
2013-02-12 11:21:00,75.4,24.6,25.82,North,0,0.0,0.0,15,0.00,,---,0.00,VWS V13.01,2013-02-12 17:21:00,
2013-02-12 11:26:00,74.3,25.2,25.82,North,0,0.0,0.0,16,0.00,,---,0.00,VWS V13.01,2013-02-12 17:26:00,
2013-02-12 11:31:00,73.2,24.4,25.82,North,0,0.0,0.0,16,0.00,,---,0.00,VWS V13.01,2013-02-12 17:31:00,
2013-02-12 11:36:00,72.5,23.8,25.82,North,0,0.0,0.0,16,0.00,,---,0.00,VWS V13.01,2013-02-12 17:36:00,
2013-02-12 11:41:00,72.5,23.8,25.82,North,0,0.0,0.0,16,0.00,,---,0.00,VWS V13.01,2013-02-12 17:41:00,
2013-02-12 11:46:00,73.4,24.5,25.82,North,0,0.0,0.0,16,0.00,,---,0.00,VWS V13.01,2013-02-12 17:46:00,
2013-02-12 11:51:00,73.6,24.7,25.82,North,0,0.0,0.0,16,0.00,,---,0.00,VWS V13.01,2013-02-12 17:51:00,
2013-02-12 11:56:00,73.4,24.5,25.82,North,0,0.0,0.0,16,0.00,,---,0.00,VWS V13.01,2013-02-12 17:56:00,
2013-02-12 12:01:00,73.2,24.4,25.82,North,0,0.0,0.0,16,0.00,,---,0.00,VWS V13.01,2013-02-12 18:01:00,
2013-02-12 12:06:00,72.5,23.8,25.82,North,0,0.0,0.0,16,0.00,,---,0.00,VWS V13.01,2013-02-12 18:06:00,
2013-02-12 12:11:00,72.0,23.4,25.82,North,0,0.0,0.0,16,0.00,,---,0.00,VWS V13.01,2013-02-12 18:11:00,
2013-02-12 12:16:00,71.6,23.1,25.82,North,0,0.0,0.0,16,0.00,,---,0.00,VWS V13.01,2013-02-12 18:16:00,
2013-02-12 12:21:00,71.4,24.4,25.79,North,0,0.0,0.0,17,0.00,,---,0.00,VWS V13.01,2013-02-12 18:21:00,
2013-02-12 12:26:00,71.1,24.1,25.79,North,0,0.0,0.0,17,0.00,,---,0.00,VWS V13.01,2013-02-12 18:26:00,
2013-02-12 12:31:00,71.2,24.2,25.79,North,0,0.0,0.0,17,0.00,,---,0.00,VWS V13.01,2013-02-12 18:31:00,
2013-02-12 12:36:00,70.9,23.9,25.79,North,0,0.0,0.0,17,0.00,,---,0.00,VWS V13.01,2013-02-12 18:36:00,
2013-02-12 12:41:00,70.7,23.8,25.79,North,0,0.0,0.0,17,0.00,,---,0.00,VWS V13.01,2013-02-12 18:41:00,
2013-02-12 12:46:00,70.5,26.3,25.79,North,0,0.0,0.0,19,0.00,,---,0.00,VWS V13.01,2013-02-12 18:46:00,
2013-02-12 12:51:00,70.3,26.2,25.79,North,0,0.0,0.0,19,0.00,,---,0.00,VWS V13.01,2013-02-12 18:51:00,
2013-02-12 12:56:00,70.3,26.2,25.79,North,0,0.0,0.0,19,0.00,,---,0.00,VWS V13.01,2013-02-12 18:56:00,
2013-02-12 13:01:00,70.2,26.0,25.79,North,0,0.0,0.0,19,0.00,,---,0.00,VWS V13.01,2013-02-12 19:01:00,
2013-02-12 13:06:00,70.3,26.2,25.76,North,0,0.0,0.0,19,0.00,,---,0.00,VWS V13.01,2013-02-12 19:06:00,
2013-02-12 13:12:00,70.2,26.0,25.76,North,0,0.0,0.0,19,0.00,,---,0.00,VWS V13.01,2013-02-12 19:12:00,
2013-02-12 13:17:00,70.3,26.2,25.76,North,0,0.0,0.0,19,0.00,,---,0.00,VWS V13.01,2013-02-12 19:17:00,
2013-02-12 13:22:00,70.0,25.9,25.76,North,0,0.0,0.0,19,0.00,,---,0.00,VWS V13.01,2013-02-12 19:22:00,
2013-02-12 13:27:00,69.4,26.7,25.76,North,0,0.0,0.0,20,0.00,,---,0.00,VWS V13.01,2013-02-12 19:27:00,
2013-02-12 13:32:00,68.9,26.2,25.76,North,0,0.0,0.0,20,0.00,,---,0.00,VWS V13.01,2013-02-12 19:32:00,
2013-02-12 13:37:00,68.7,26.1,25.76,North,0,0.0,0.0,20,0.00,,---,0.00,VWS V13.01,2013-02-12 19:37:00,
2013-02-12 13:42:00,68.5,25.9,25.76,North,0,0.0,0.0,20,0.00,,---,0.00,VWS V13.01,2013-02-12 19:42:00,
2013-02-12 13:47:00,68.4,25.8,25.76,North,0,0.0,0.0,20,0.00,,---,0.00,VWS V13.01,2013-02-12 19:47:00,
2013-02-12 13:52:00,68.0,25.5,25.76,North,0,0.0,0.0,20,0.00,,---,0.00,VWS V13.01,2013-02-12 19:52:00,
2013-02-12 13:57:00,67.8,25.3,25.76,North,0,0.0,0.0,20,0.00,,---,0.00,VWS V13.01,2013-02-12 19:57:00,
2013-02-12 14:02:00,68.2,25.6,25.76,North,0,0.0,0.0,20,0.00,,---,0.00,VWS V13.01,2013-02-12 20:02:00,
2013-02-12 14:07:00,68.5,25.9,25.73,North,0,0.0,0.0,20,0.00,,---,0.00,VWS V13.01,2013-02-12 20:07:00,
2013-02-12 14:12:00,68.7,26.1,25.73,North,0,0.0,0.0,20,0.00,,---,0.00,VWS V13.01,2013-02-12 20:12:00,
2013-02-12 14:17:00,68.7,26.1,25.73,North,0,0.0,0.0,20,0.00,,---,0.00,VWS V13.01,2013-02-12 20:17:00,
2013-02-12 14:22:00,68.7,26.1,25.73,North,0,0.0,0.0,20,0.00,,---,0.00,VWS V13.01,2013-02-12 20:22:00,
2013-02-12 14:27:00,68.4,25.8,25.73,North,0,0.0,0.0,20,0.00,,---,0.00,VWS V13.01,2013-02-12 20:27:00,
2013-02-12 14:32:00,68.4,25.8,25.73,North,0,0.0,0.0,20,0.00,,---,0.00,VWS V13.01,2013-02-12 20:32:00,
2013-02-12 14:37:00,68.7,26.1,25.73,North,0,0.0,0.0,20,0.00,,---,0.00,VWS V13.01,2013-02-12 20:37:00,
2013-02-12 14:42:00,68.9,26.2,25.73,North,0,0.0,0.0,20,0.00,,---,0.00,VWS V13.01,2013-02-12 20:42:00,
2013-02-12 14:47:00,69.3,26.5,25.73,North,0,0.0,0.0,20,0.00,,---,0.00,VWS V13.01,2013-02-12 20:47:00,
2013-02-12 14:52:00,69.8,25.7,25.73,North,0,0.0,0.0,19,0.00,,---,0.00,VWS V13.01,2013-02-12 20:52:00,
2013-02-12 14:57:00,70.3,26.2,25.73,North,0,0.0,0.0,19,0.00,,---,0.00,VWS V13.01,2013-02-12 20:57:00,
2013-02-12 15:02:00,71.1,26.8,25.73,North,0,0.0,0.0,19,0.00,,---,0.00,VWS V13.01,2013-02-12 21:02:00,
2013-02-12 15:07:00,71.1,26.8,25.73,North,0,0.0,0.0,19,0.00,,---,0.00,VWS V13.01,2013-02-12 21:07:00,
2013-02-12 15:12:00,70.7,26.5,25.73,North,0,0.0,0.0,19,0.00,,---,0.00,VWS V13.01,2013-02-12 21:12:00,
2013-02-12 15:17:00,71.1,26.8,25.73,North,0,0.0,0.0,19,0.00,,---,0.00,VWS V13.01,2013-02-12 21:17:00,
2013-02-12 15:22:00,70.7,26.5,25.73,North,0,0.0,0.0,19,0.00,,---,0.00,VWS V13.01,2013-02-12 21:22:00,
2013-02-12 15:27:00,70.3,26.2,25.73,North,0,0.0,0.0,19,0.00,,---,0.00,VWS V13.01,2013-02-12 21:27:00,
2013-02-12 15:32:00,70.2,26.0,25.73,North,0,0.0,0.0,19,0.00,,---,0.00,VWS V13.01,2013-02-12 21:32:00,
2013-02-12 15:37:00,70.2,23.4,25.73,North,0,0.0,0.0,17,0.00,,---,0.00,VWS V13.01,2013-02-12 21:37:00,
2013-02-12 15:42:00,70.0,23.2,25.73,North,0,0.0,0.0,17,0.00,,---,0.00,VWS V13.01,2013-02-12 21:42:00,
2013-02-12 15:47:00,69.6,22.9,25.73,North,0,0.0,0.0,17,0.00,,---,0.00,VWS V13.01,2013-02-12 21:47:00,
2013-02-12 15:52:00,69.4,22.8,25.73,North,0,0.0,0.0,17,0.00,,---,0.00,VWS V13.01,2013-02-12 21:52:00,
2013-02-12 15:57:00,69.4,22.8,25.73,North,0,0.0,0.0,17,0.00,,---,0.00,VWS V13.01,2013-02-12 21:57:00,
2013-02-12 16:02:00,69.4,22.8,25.73,North,0,0.0,0.0,17,0.00,,---,0.00,VWS V13.01,2013-02-12 22:02:00,
2013-02-12 16:07:00,69.4,22.8,25.70,North,0,0.0,0.0,17,0.00,,---,0.00,VWS V13.01,2013-02-12 22:07:00,
2013-02-12 16:12:00,69.6,22.9,25.70,North,0,0.0,0.0,17,0.00,,---,0.00,VWS V13.01,2013-02-12 22:12:00,
2013-02-12 16:17:00,69.4,22.8,25.70,North,0,0.0,0.0,17,0.00,,---,0.00,VWS V13.01,2013-02-12 22:17:00,
2013-02-12 16:22:00,69.4,22.8,25.70,North,0,0.0,0.0,17,0.00,,---,0.00,VWS V13.01,2013-02-12 22:22:00,
2013-02-12 16:27:00,69.1,22.5,25.70,North,0,0.0,0.0,17,0.00,,---,0.00,VWS V13.01,2013-02-12 22:27:00,
2013-02-12 16:32:00,68.7,22.2,25.70,North,0,0.0,0.0,17,0.00,,---,0.00,VWS V13.01,2013-02-12 22:32:00,
2013-02-12 16:37:00,68.5,22.0,25.70,North,0,0.0,0.0,17,0.00,,---,0.00,VWS V13.01,2013-02-12 22:37:00,
2013-02-12 16:42:00,68.2,21.7,25.70,North,0,0.0,0.0,17,0.00,,---,0.00,VWS V13.01,2013-02-12 22:42:00,
2013-02-12 16:47:00,68.0,21.6,25.70,North,0,0.0,0.0,17,0.00,,---,0.00,VWS V13.01,2013-02-12 22:47:00,
2013-02-12 16:52:00,68.0,21.6,25.70,North,0,0.0,0.0,17,0.00,,---,0.00,VWS V13.01,2013-02-12 22:52:00,
2013-02-12 16:57:00,68.0,21.6,25.70,North,0,0.0,0.0,17,0.00,,---,0.00,VWS V13.01,2013-02-12 22:57:00,
2013-02-12 17:02:00,67.8,21.5,25.70,North,0,0.0,0.0,17,0.00,,---,0.00,VWS V13.01,2013-02-12 23:02:00,
2013-02-12 17:07:00,67.6,25.2,25.70,North,0,0.0,0.0,20,0.00,,---,0.00,VWS V13.01,2013-02-12 23:07:00,
2013-02-12 17:12:00,67.3,24.9,25.70,North,0,0.0,0.0,20,0.00,,---,0.00,VWS V13.01,2013-02-12 23:12:00,
2013-02-12 17:17:00,67.1,24.7,25.70,North,0,0.0,0.0,20,0.00,,---,0.00,VWS V13.01,2013-02-12 23:17:00,
2013-02-12 17:22:00,66.9,24.6,25.70,North,0,0.0,0.0,20,0.00,,---,0.00,VWS V13.01,2013-02-12 23:22:00,
2013-02-12 17:27:00,66.7,24.4,25.70,North,0,0.0,0.0,20,0.00,,---,0.00,VWS V13.01,2013-02-12 23:27:00,
2013-02-12 17:32:00,66.7,24.4,25.70,North,0,0.0,0.0,20,0.00,,---,0.00,VWS V13.01,2013-02-12 23:32:00,
2013-02-12 17:37:00,66.7,24.4,25.70,North,0,0.0,0.0,20,0.00,,---,0.00,VWS V13.01,2013-02-12 23:37:00,
2013-02-12 17:42:00,66.7,24.4,25.70,North,0,0.0,0.0,20,0.00,,---,0.00,VWS V13.01,2013-02-12 23:42:00,
2013-02-12 17:47:00,66.7,20.6,25.70,North,0,0.0,0.0,17,0.00,,---,0.00,VWS V13.01,2013-02-12 23:47:00,
2013-02-12 17:52:00,66.7,24.4,25.70,North,0,0.0,0.0,20,0.00,,---,0.00,VWS V13.01,2013-02-12 23:52:00,
2013-02-12 17:57:00,66.7,24.4,25.70,North,0,0.0,0.0,20,0.00,,---,0.00,VWS V13.01,2013-02-12 23:57:00,
2013-02-12 18:02:00,66.7,24.4,25.70,North,0,0.0,0.0,20,0.00,,---,0.00,VWS V13.01,2013-02-13 00:02:00,
2013-02-12 18:07:00,66.7,24.4,25.70,North,0,0.0,0.0,20,0.00,,---,0.00,VWS V13.01,2013-02-13 00:07:00,
2013-02-12 18:12:00,66.7,24.4,25.70,North,0,0.0,0.0,20,0.00,,---,0.00,VWS V13.01,2013-02-13 00:12:00,
2013-02-12 18:17:00,66.7,24.4,25.70,North,0,0.0,0.0,20,0.00,,---,0.00,VWS V13.01,2013-02-13 00:17:00,
2013-02-12 18:22:00,66.6,24.3,25.70,North,0,0.0,0.0,20,0.00,,---,0.00,VWS V13.01,2013-02-13 00:22:00,
2013-02-12 18:27:00,66.4,24.1,25.70,North,0,0.0,0.0,20,0.00,,---,0.00,VWS V13.01,2013-02-13 00:27:00,
2013-02-12 18:32:00,66.4,24.1,25.70,North,0,0.0,0.0,20,0.00,,---,0.00,VWS V13.01,2013-02-13 00:32:00,
2013-02-12 18:37:00,66.4,24.1,25.70,North,0,0.0,0.0,20,0.00,,---,0.00,VWS V13.01,2013-02-13 00:37:00,
2013-02-12 18:42:00,66.4,24.1,25.70,North,0,0.0,0.0,20,0.00,,---,0.00,VWS V13.01,2013-02-13 00:42:00,
2013-02-12 18:47:00,66.2,24.0,25.70,North,0,0.0,0.0,20,0.00,,---,0.00,VWS V13.01,2013-02-13 00:47:00,
2013-02-12 18:52:00,66.0,23.8,25.70,North,0,0.0,0.0,20,0.00,,---,0.00,VWS V13.01,2013-02-13 00:52:00,
2013-02-12 18:57:00,65.8,23.7,25.70,North,0,0.0,0.0,20,0.00,,---,0.00,VWS V13.01,2013-02-13 00:57:00,
2013-02-12 19:02:00,65.7,23.5,25.70,North,0,0.0,0.0,20,0.00,,---,0.00,VWS V13.01,2013-02-13 01:02:00,
2013-02-12 19:07:00,65.7,23.5,25.70,North,0,0.0,0.0,20,0.00,,---,0.00,VWS V13.01,2013-02-13 01:07:00,
2013-02-12 19:12:00,65.7,23.5,25.70,North,0,0.0,0.0,20,0.00,,---,0.00,VWS V13.01,2013-02-13 01:12:00,
2013-02-12 19:17:00,65.7,23.5,25.70,North,0,0.0,0.0,20,0.00,,---,0.00,VWS V13.01,2013-02-13 01:17:00,
2013-02-12 19:22:00,65.7,23.5,25.73,North,0,0.0,0.0,20,0.00,,---,0.00,VWS V13.01,2013-02-13 01:22:00,
2013-02-12 19:27:00,65.5,26.7,25.73,North,0,0.0,0.0,23,0.00,,---,0.00,VWS V13.01,2013-02-13 01:27:00,
2013-02-12 19:32:00,65.5,26.7,25.73,North,0,0.0,0.0,23,0.00,,---,0.00,VWS V13.01,2013-02-13 01:32:00,
2013-02-12 19:37:00,65.3,26.6,25.73,North,0,0.0,0.0,23,0.00,,---,0.00,VWS V13.01,2013-02-13 01:37:00,
2013-02-12 19:42:00,65.1,26.4,25.73,North,0,0.0,0.0,23,0.00,,---,0.00,VWS V13.01,2013-02-13 01:42:00,
2013-02-12 19:47:00,64.9,26.3,25.73,North,0,0.0,0.0,23,0.00,,---,0.00,VWS V13.01,2013-02-13 01:47:00,
2013-02-12 19:52:00,64.8,26.1,25.73,North,0,0.0,0.0,23,0.00,,---,0.00,VWS V13.01,2013-02-13 01:52:00,
2013-02-12 19:57:00,64.8,26.1,25.73,North,0,0.0,0.0,23,0.00,,---,0.00,VWS V13.01,2013-02-13 01:57:00,
2013-02-12 20:02:00,64.9,26.3,25.73,North,0,0.0,0.0,23,0.00,,---,0.00,VWS V13.01,2013-02-13 02:02:00,
2013-02-12 20:07:00,64.9,26.3,25.73,North,0,0.0,0.0,23,0.00,,---,0.00,VWS V13.01,2013-02-13 02:07:00,
2013-02-12 20:12:00,65.1,26.4,25.73,North,0,0.0,0.0,23,0.00,,---,0.00,VWS V13.01,2013-02-13 02:12:00,
2013-02-12 20:17:00,65.1,26.4,25.73,North,0,0.0,0.0,23,0.00,,---,0.00,VWS V13.01,2013-02-13 02:17:00,
2013-02-12 20:22:00,65.1,26.4,25.73,North,0,0.0,0.0,23,0.00,,---,0.00,VWS V13.01,2013-02-13 02:22:00,
2013-02-12 20:27:00,65.1,26.4,25.73,North,0,0.0,0.0,23,0.00,,---,0.00,VWS V13.01,2013-02-13 02:27:00,
2013-02-12 20:32:00,65.1,26.4,25.73,North,0,0.0,0.0,23,0.00,,---,0.00,VWS V13.01,2013-02-13 02:32:00,
2013-02-12 20:37:00,64.9,26.3,25.73,North,0,0.0,0.0,23,0.00,,---,0.00,VWS V13.01,2013-02-13 02:37:00,
2013-02-12 20:42:00,64.8,26.1,25.73,North,0,0.0,0.0,23,0.00,,---,0.00,VWS V13.01,2013-02-13 02:42:00,
2013-02-12 20:47:00,64.9,26.3,25.73,North,0,0.0,0.0,23,0.00,,---,0.00,VWS V13.01,2013-02-13 02:47:00,
2013-02-12 20:52:00,64.9,26.3,25.73,North,0,0.0,0.0,23,0.00,,---,0.00,VWS V13.01,2013-02-13 02:52:00,
2013-02-12 20:57:00,64.9,26.3,25.73,North,0,0.0,0.0,23,0.00,,---,0.00,VWS V13.01,2013-02-13 02:57:00,
2013-02-12 21:02:00,64.8,26.1,25.73,North,0,0.0,0.0,23,0.00,,---,0.00,VWS V13.01,2013-02-13 03:02:00,
2013-02-12 21:07:00,64.8,26.1,25.73,North,0,0.0,0.0,23,0.00,,---,0.00,VWS V13.01,2013-02-13 03:07:00,
2013-02-12 21:12:00,64.9,26.3,25.73,North,0,0.0,0.0,23,0.00,,---,0.00,VWS V13.01,2013-02-13 03:12:00,
2013-02-12 21:17:00,65.1,26.4,25.73,North,0,0.0,0.0,23,0.00,,---,0.00,VWS V13.01,2013-02-13 03:17:00,
2013-02-12 21:22:00,65.1,26.4,25.73,North,0,0.0,0.0,23,0.00,,---,0.00,VWS V13.01,2013-02-13 03:22:00,
2013-02-12 21:27:00,64.8,26.1,25.73,North,0,0.0,0.0,23,0.00,,---,0.00,VWS V13.01,2013-02-13 03:27:00,
2013-02-12 21:32:00,64.6,26.0,25.73,North,0,0.0,0.0,23,0.00,,---,0.00,VWS V13.01,2013-02-13 03:32:00,
2013-02-12 21:37:00,64.4,25.8,25.73,North,0,0.0,0.0,23,0.00,,---,0.00,VWS V13.01,2013-02-13 03:37:00,
2013-02-12 21:42:00,64.4,25.8,25.73,North,0,0.0,0.0,23,0.00,,---,0.00,VWS V13.01,2013-02-13 03:42:00,
2013-02-12 21:47:00,64.2,25.7,25.73,North,0,0.0,0.0,23,0.00,,---,0.00,VWS V13.01,2013-02-13 03:47:00,
2013-02-12 21:52:00,64.2,25.7,25.73,North,0,0.0,0.0,23,0.00,,---,0.00,VWS V13.01,2013-02-13 03:52:00,
2013-02-12 21:57:00,64.4,25.8,25.73,North,0,0.0,0.0,23,0.00,,---,0.00,VWS V13.01,2013-02-13 03:57:00,
2013-02-12 22:02:00,64.4,25.8,25.73,North,0,0.0,0.0,23,0.00,,---,0.00,VWS V13.01,2013-02-13 04:02:00,
2013-02-12 22:07:00,64.6,26.0,25.73,North,0,0.0,0.0,23,0.00,,---,0.00,VWS V13.01,2013-02-13 04:07:00,
2013-02-12 22:12:00,64.4,25.8,25.73,North,0,0.0,0.0,23,0.00,,---,0.00,VWS V13.01,2013-02-13 04:12:00,
2013-02-12 22:17:00,64.0,25.5,25.73,North,0,0.0,0.0,23,0.00,,---,0.00,VWS V13.01,2013-02-13 04:17:00,
2013-02-12 22:22:00,64.2,25.7,25.73,North,0,0.0,0.0,23,0.00,,---,0.00,VWS V13.01,2013-02-13 04:22:00,
2013-02-12 22:27:00,64.2,25.7,25.73,North,0,0.0,0.0,23,0.00,,---,0.00,VWS V13.01,2013-02-13 04:27:00,
2013-02-12 22:32:00,63.9,25.4,25.73,North,0,0.0,0.0,23,0.00,,---,0.00,VWS V13.01,2013-02-13 04:32:00,
2013-02-12 22:37:00,63.9,25.4,25.73,North,0,0.0,0.0,23,0.00,,---,0.00,VWS V13.01,2013-02-13 04:37:00,
2013-02-12 22:42:00,63.9,25.4,25.73,North,0,0.0,0.0,23,0.00,,---,0.00,VWS V13.01,2013-02-13 04:42:00,
2013-02-12 22:47:00,64.0,25.5,25.73,North,0,0.0,0.0,23,0.00,,---,0.00,VWS V13.01,2013-02-13 04:47:00,
2013-02-12 22:52:00,64.0,23.3,25.73,North,0,0.0,0.0,21,0.00,,---,0.00,VWS V13.01,2013-02-13 04:52:00,
2013-02-12 22:57:00,63.9,23.2,25.73,North,0,0.0,0.0,21,0.00,,---,0.00,VWS V13.01,2013-02-13 04:57:00,
2013-02-12 23:00:00,63.5,22.9,25.73,North,0,0.0,0.0,21,0.00,,---,0.00,VWS V13.01,2013-02-13 05:00:00,
2013-02-12 23:05:00,63.0,24.6,25.73,North,0,0.0,0.0,23,0.00,,---,0.00,VWS V13.01,2013-02-13 05:05:00,
2013-02-12 23:10:00,62.4,25.2,25.73,North,0,0.0,0.0,24,0.00,,---,0.00,VWS V13.01,2013-02-13 05:10:00,
2013-02-12 23:15:00,62.2,25.0,25.73,North,0,0.0,0.0,24,0.00,,---,0.00,VWS V13.01,2013-02-13 05:15:00,
2013-02-12 23:20:00,62.2,25.0,25.73,North,0,0.0,0.0,24,0.00,,---,0.00,VWS V13.01,2013-02-13 05:20:00,
2013-02-12 23:26:00,62.1,24.9,25.73,North,0,0.0,0.0,24,0.00,,---,0.00,VWS V13.01,2013-02-13 05:26:00,
2013-02-12 23:31:00,61.9,24.7,25.73,North,0,0.0,0.0,24,0.00,,---,0.00,VWS V13.01,2013-02-13 05:31:00,
2013-02-12 23:36:00,61.7,24.6,25.73,North,0,0.0,0.0,24,0.00,,---,0.00,VWS V13.01,2013-02-13 05:36:00,
2013-02-12 23:41:00,61.5,24.4,25.73,North,0,0.0,0.0,24,0.00,,---,0.00,VWS V13.01,2013-02-13 05:41:00,
2013-02-12 23:46:00,62.2,25.0,25.73,North,0,0.0,0.0,24,0.00,,---,0.00,VWS V13.01,2013-02-13 05:46:00,
2013-02-12 23:51:00,63.0,25.6,25.70,North,0,0.0,0.0,24,0.00,,---,0.00,VWS V13.01,2013-02-13 05:51:00,
2013-02-12 23:56:00,63.3,25.9,25.70,North,0,0.0,0.0,24,0.00,,---,0.00,VWS V13.01,2013-02-13 05:56:00,